StationID,Date,MaxTemp,MinTemp,Precipitation,Snowfall,SnowDepth
"USW00026563","2010-08-31",56.84,35.78,0.00,,
"USW00026563","2010-09-01",62.42,35.06,7.00,,
"USW00026563","2010-09-02",63.50,40.46,0.00,,
"USW00026563","2010-09-03",63.68,38.12,0.00,,
"USW00026563","2010-09-04",55.76,46.40,77.00,,
"USW00026563","2010-09-05",58.28,42.08,32.00,,
"USW00026563","2010-09-06",61.16,36.86,0.00,,
"USW00026563","2010-09-07",62.06,50.54,76.00,,
"USW00026563","2010-09-08",58.82,43.88,0.00,,
"USW00026563","2010-09-09",57.74,41.00,0.00,,
"USW00026563","2010-09-10",64.76,31.82,0.00,,
"USW00026563","2010-09-11",64.94,33.08,0.00,,
"USW00026563","2010-09-12",64.94,33.44,0.00,,
"USW00026563","2010-09-13",67.10,32.36,0.00,,
"USW00026563","2010-09-14",60.26,32.54,0.00,,
"USW00026563","2010-09-15",59.72,35.60,0.00,,
"USW00026563","2010-09-16",61.34,35.24,0.00,,
"USW00026563","2010-09-17",58.82,33.08,0.00,,
"USW00026563","2010-09-18",55.94,33.80,0.00,,
"USW00026563","2010-09-19",60.44,29.30,0.00,,
"USW00026563","2010-09-20",54.86,39.38,0.00,,
"USW00026563","2010-09-21",54.14,40.64,0.00,,
"USW00026563","2010-09-22",56.48,38.66,0.00,,
"USW00026563","2010-09-23",56.84,30.56,0.00,,
"USW00026563","2010-09-24",49.28,38.12,0.00,,
"USW00026563","2010-09-25",51.44,23.90,0.00,,
"USW00026563","2010-09-26",47.84,19.94,0.00,,
"USW00026563","2010-09-27",42.98,14.90,0.00,,
"USW00026563","2010-09-28",44.24,16.34,0.00,,
"USW00026563","2010-09-29",49.46,37.58,4.00,,
"USW00026563","2010-09-30",50.72,43.34,28.00,,
"USW00026563","2010-10-01",53.24,43.16,33.00,,
"USW00026563","2010-10-02",50.54,39.20,42.00,,
"USW00026563","2010-10-03",53.24,38.84,0.00,,
"USW00026563","2010-10-04",51.08,30.56,0.00,,
"USW00026563","2010-10-05",52.16,26.78,0.00,,
"USW00026563","2010-10-06",44.78,28.04,11.00,,
"USW00026563","2010-10-07",44.78,27.14,0.00,,
"USW00026563","2010-10-08",46.04,26.06,0.00,,
"USW00026563","2010-10-09",46.76,20.48,0.00,,
"USW00026563","2010-10-10",45.68,21.20,0.00,,
"USW00026563","2010-10-11",41.54,24.44,6.00,,
"USW00026563","2010-10-12",44.60,21.92,0.00,,
"USW00026563","2010-10-13",41.18,14.36,0.00,,
"USW00026563","2010-10-14",37.94,9.86,0.00,,
"USW00026563","2010-10-15",37.58,10.58,0.00,,
"USW00026563","2010-10-16",41.72,21.02,0.00,,
"USW00026563","2010-10-17",42.26,36.86,0.00,,
"USW00026563","2010-10-18",51.98,30.92,5.00,,
"USW00026563","2010-10-19",49.10,26.60,0.00,,
"USW00026563","2010-10-20",50.54,27.32,0.00,,
"USW00026563","2010-10-21",45.14,23.72,0.00,,
"USW00026563","2010-10-22",42.98,35.78,0.00,,
"USW00026563","2010-10-23",43.52,25.88,0.00,,
"USW00026563","2010-10-24",38.12,24.44,2.00,,
"USW00026563","2010-10-25",41.54,31.64,63.00,,
"USW00026563","2010-10-26",39.38,24.80,0.00,,
"USW00026563","2010-10-27",45.68,25.34,0.00,,
"USW00026563","2010-10-28",42.26,27.14,22.00,,
"USW00026563","2010-10-29",38.66,19.94,0.00,,
"USW00026563","2010-10-30",30.38,21.02,0.00,,
"USW00026563","2010-10-31",34.16,23.36,0.00,,
"USW00026563","2010-11-01",36.68,25.52,52.00,,
"USW00026563","2010-11-02",39.38,30.56,43.00,,
"USW00026563","2010-11-03",37.22,30.74,21.00,,
"USW00026563","2010-11-04",34.34,22.64,42.00,,
"USW00026563","2010-11-05",33.98,20.66,13.00,,
"USW00026563","2010-11-06",32.54,31.10,45.00,,
"USW00026563","2010-11-07",31.82,28.22,66.00,,
"USW00026563","2010-11-08",28.40,21.92,194.00,,
"USW00026563","2010-11-09",25.70,1.04,9.00,,
"USW00026563","2010-11-10",26.96,0.68,0.00,,
"USW00026563","2010-11-11",32.36,18.14,0.00,,
"USW00026563","2010-11-12",33.26,25.16,19.00,,
"USW00026563","2010-11-13",37.58,28.40,0.00,,
"USW00026563","2010-11-14",36.50,25.34,0.00,,
"USW00026563","2010-11-15",30.02,14.90,11.00,,
"USW00026563","2010-11-16",22.28,14.54,0.00,,
"USW00026563","2010-11-17",16.88,-7.42,0.00,,
"USW00026563","2010-11-18",12.92,-6.70,0.00,,
"USW00026563","2010-11-19",15.80,-6.34,0.00,,
"USW00026563","2010-11-20",16.52,-5.08,0.00,,
"USW00026563","2010-11-21",21.92,12.38,0.00,,
"USW00026563","2010-11-22",32.36,18.32,5.00,,
"USW00026563","2010-11-23",38.30,32.00,114.00,,
"USW00026563","2010-11-24",42.26,28.94,29.00,,
"USW00026563","2010-11-25",33.08,23.36,116.00,,
"USW00026563","2010-11-26",23.72,0.32,0.00,,
"USW00026563","2010-11-27",21.20,-0.40,0.00,,
"USW00026563","2010-11-28",19.04,-2.74,13.00,,
"USW00026563","2010-11-29",21.92,15.62,0.00,,
"USW00026563","2010-11-30",21.74,-11.74,0.00,,
"USW00026563","2010-12-01",3.74,-14.44,0.00,,
"USW00026563","2010-12-02",10.04,-10.84,0.00,,
"USW00026563","2010-12-03",37.40,-6.52,40.00,,
"USW00026563","2010-12-04",30.74,11.84,0.00,,
"USW00026563","2010-12-05",17.42,-2.56,0.00,,
"USW00026563","2010-12-06",18.86,-1.84,0.00,,
"USW00026563","2010-12-07",22.10,5.90,0.00,,
"USW00026563","2010-12-08",8.06,-5.62,0.00,,
"USW00026563","2010-12-09",2.84,-11.92,0.00,,
"USW00026563","2010-12-10",15.80,-11.20,10.00,,
"USW00026563","2010-12-11",17.06,-5.62,5.00,,
"USW00026563","2010-12-12",-1.48,-16.78,0.00,,
"USW00026563","2010-12-13",,,0.00,,
"USW00026563","2010-12-14",,,2.00,,
"USW00026563","2010-12-15",,,0.00,,
"USW00026563","2010-12-16",,,0.00,,
"USW00026563","2010-12-17",,,0.00,,
"USW00026563","2010-12-18",,,0.00,,
"USW00026563","2010-12-19",,,27.00,,
"USW00026563","2010-12-20",,,16.00,,
"USW00026563","2010-12-21",,,8.00,,
"USW00026563","2010-12-22",,,17.00,,
"USW00026563","2010-12-23",18.68,-21.28,5.00,,
"USW00026563","2010-12-24",-12.28,-26.68,14.00,,
"USW00026563","2010-12-25",-4.54,-22.36,0.00,,
"USW00026563","2010-12-26",5.18,-17.50,3.00,,
"USW00026563","2010-12-27",8.96,-14.98,0.00,,
"USW00026563","2010-12-28",-2.56,-14.62,0.00,,
"USW00026563","2010-12-29",15.08,-3.46,3.00,,
"USW00026563","2010-12-30",35.78,14.90,44.00,,
"USW00026563","2010-12-31",40.64,22.64,22.00,,
"USW00026563","2011-01-01",45.86,27.32,0.00,,
"USW00026563","2011-01-02",44.78,33.44,0.00,,
"USW00026563","2011-01-03",44.78,29.30,0.00,,
"USW00026563","2011-01-04",44.96,28.76,0.00,,
"USW00026563","2011-01-05",35.96,16.16,0.00,,
"USW00026563","2011-01-06",20.30,3.56,0.00,,
"USW00026563","2011-01-07",12.92,-3.28,0.00,,
"USW00026563","2011-01-08",16.88,3.92,0.00,,
"USW00026563","2011-01-09",12.92,1.76,0.00,,
"USW00026563","2011-01-10",12.74,-0.76,0.00,,
"USW00026563","2011-01-11",10.76,-4.72,0.00,,
"USW00026563","2011-01-12",16.16,-9.04,5.00,,
"USW00026563","2011-01-13",11.66,-15.88,0.00,,
"USW00026563","2011-01-14",8.06,-14.98,0.00,,
"USW00026563","2011-01-15",2.66,-23.80,0.00,,
"USW00026563","2011-01-16",-5.62,-28.84,0.00,,
"USW00026563","2011-01-17",3.38,-24.16,0.00,,
"USW00026563","2011-01-18",1.22,-17.32,0.00,,
"USW00026563","2011-01-19",12.38,-12.10,19.00,,
"USW00026563","2011-01-20",18.86,12.38,10.00,,
"USW00026563","2011-01-21",23.00,16.34,24.00,,
"USW00026563","2011-01-22",28.04,-0.58,22.00,,
"USW00026563","2011-01-23",33.98,1.22,0.00,,
"USW00026563","2011-01-24",41.72,22.28,0.00,,
"USW00026563","2011-01-25",32.54,23.54,8.00,,
"USW00026563","2011-01-26",31.28,13.46,18.00,,
"USW00026563","2011-01-27",21.56,-0.04,0.00,,
"USW00026563","2011-01-28",21.92,10.22,0.00,,
"USW00026563","2011-01-29",33.80,17.60,0.00,,
"USW00026563","2011-01-30",32.00,19.94,0.00,,
"USW00026563","2011-01-31",32.00,26.06,19.00,,
"USW00026563","2011-02-01",31.10,27.68,,,
"USW00026563","2011-02-02",33.98,25.52,31.00,,
"USW00026563","2011-02-03",30.20,13.28,13.00,,
"USW00026563","2011-02-04",25.52,-1.12,0.00,,
"USW00026563","2011-02-05",19.76,-7.60,0.00,,
"USW00026563","2011-02-06",21.74,5.90,0.00,,
"USW00026563","2011-02-07",21.92,2.12,0.00,,
"USW00026563","2011-02-08",35.60,21.92,0.00,,
"USW00026563","2011-02-09",37.94,30.20,3.00,,
"USW00026563","2011-02-10",30.92,23.18,0.00,,
"USW00026563","2011-02-11",23.18,-0.58,0.00,,
"USW00026563","2011-02-12",10.58,-18.22,0.00,,
"USW00026563","2011-02-13",14.36,-18.22,5.00,,
"USW00026563","2011-02-14",19.76,0.14,0.00,,
"USW00026563","2011-02-15",18.50,-15.16,0.00,,
"USW00026563","2011-02-16",19.94,-13.72,0.00,,
"USW00026563","2011-02-17",21.74,-11.02,3.00,,
"USW00026563","2011-02-18",23.90,15.26,19.00,,
"USW00026563","2011-02-19",21.92,-7.06,0.00,,
"USW00026563","2011-02-20",15.08,-7.06,0.00,,
"USW00026563","2011-02-21",25.16,-13.72,0.00,,
"USW00026563","2011-02-22",21.02,-11.74,0.00,,
"USW00026563","2011-02-23",19.76,-17.50,0.00,,
"USW00026563","2011-02-24",25.16,-4.00,0.00,,
"USW00026563","2011-02-25",38.48,14.72,0.00,,
"USW00026563","2011-02-26",20.12,10.40,0.00,,
"USW00026563","2011-02-27",21.92,6.80,0.00,,
"USW00026563","2011-02-28",26.06,-9.40,0.00,,
"USW00026563","2011-03-01",27.50,-9.76,0.00,,
"USW00026563","2011-03-02",26.60,-13.90,0.00,,
"USW00026563","2011-03-03",26.06,-4.00,0.00,,
"USW00026563","2011-03-04",19.58,-6.52,0.00,,
"USW00026563","2011-03-05",23.72,-15.34,0.00,,
"USW00026563","2011-03-06",28.22,14.00,0.00,,
"USW00026563","2011-03-07",33.08,8.60,0.00,,
"USW00026563","2011-03-08",34.52,-2.56,0.00,,
"USW00026563","2011-03-09",31.82,-4.90,0.00,,
"USW00026563","2011-03-10",29.12,-7.60,0.00,,
"USW00026563","2011-03-11",28.94,-12.64,0.00,,
"USW00026563","2011-03-12",26.78,-15.16,0.00,,
"USW00026563","2011-03-13",25.52,-14.62,0.00,,
"USW00026563","2011-03-14",23.72,-15.70,0.00,,
"USW00026563","2011-03-15",27.50,-4.90,0.00,,
"USW00026563","2011-03-16",36.14,13.46,0.00,,
"USW00026563","2011-03-17",30.02,25.52,53.00,,
"USW00026563","2011-03-18",33.62,23.36,0.00,,
"USW00026563","2011-03-19",35.60,5.90,0.00,,
"USW00026563","2011-03-20",40.64,0.14,0.00,,
"USW00026563","2011-03-21",36.50,26.24,0.00,,
"USW00026563","2011-03-22",40.28,24.98,0.00,,
"USW00026563","2011-03-23",38.84,26.24,0.00,,
"USW00026563","2011-03-24",37.22,26.96,0.00,,
"USW00026563","2011-03-25",36.32,25.16,0.00,,
"USW00026563","2011-03-26",39.38,21.74,3.00,,
"USW00026563","2011-03-27",37.94,14.00,0.00,,
"USW00026563","2011-03-28",34.16,9.86,2.00,,
"USW00026563","2011-03-29",48.02,25.70,0.00,,
"USW00026563","2011-03-30",46.58,27.68,0.00,,
"USW00026563","2011-03-31",35.78,26.06,17.00,,
"USW00026563","2011-04-01",38.30,19.22,0.00,,
"USW00026563","2011-04-02",42.44,18.14,0.00,,
"USW00026563","2011-04-03",41.72,32.90,0.00,,
"USW00026563","2011-04-04",40.46,31.28,23.00,,
"USW00026563","2011-04-05",38.66,26.78,21.00,,
"USW00026563","2011-04-06",35.42,22.46,2.00,,
"USW00026563","2011-04-07",42.98,27.68,5.00,,
"USW00026563","2011-04-08",45.68,29.30,6.00,,
"USW00026563","2011-04-09",43.16,22.82,0.00,,
"USW00026563","2011-04-10",40.28,22.10,3.00,,
"USW00026563","2011-04-11",39.74,24.08,0.00,,
"USW00026563","2011-04-12",42.44,26.24,0.00,,
"USW00026563","2011-04-13",38.30,22.82,0.00,,
"USW00026563","2011-04-14",44.96,22.82,0.00,,
"USW00026563","2011-04-15",49.10,17.42,0.00,,
"USW00026563","2011-04-16",49.64,21.02,0.00,,
"USW00026563","2011-04-17",49.10,19.76,0.00,,
"USW00026563","2011-04-18",50.36,19.76,0.00,,
"USW00026563","2011-04-19",50.36,20.84,0.00,,
"USW00026563","2011-04-20",49.10,20.48,0.00,,
"USW00026563","2011-04-21",46.94,28.04,0.00,,
"USW00026563","2011-04-22",47.48,35.24,0.00,,
"USW00026563","2011-04-23",49.10,32.00,0.00,,
"USW00026563","2011-04-24",48.74,35.06,0.00,,
"USW00026563","2011-04-25",52.34,29.30,6.00,,
"USW00026563","2011-04-26",47.66,27.32,19.00,,
"USW00026563","2011-04-27",45.68,27.32,0.00,,
"USW00026563","2011-04-28",52.52,25.34,0.00,,
"USW00026563","2011-04-29",48.20,32.72,7.00,,
"USW00026563","2011-04-30",46.40,26.42,9.00,,
"USW00026563","2011-05-01",50.18,21.56,0.00,,
"USW00026563","2011-05-02",50.18,20.66,0.00,,
"USW00026563","2011-05-03",44.42,24.26,2.00,,
"USW00026563","2011-05-04",45.14,28.22,17.00,,
"USW00026563","2011-05-05",50.90,24.98,0.00,,
"USW00026563","2011-05-06",57.38,27.50,0.00,,
"USW00026563","2011-05-07",54.50,26.24,11.00,,
"USW00026563","2011-05-08",48.38,30.92,2.00,,
"USW00026563","2011-05-09",52.88,28.40,5.00,,
"USW00026563","2011-05-10",54.50,24.08,0.00,,
"USW00026563","2011-05-11",51.44,22.64,0.00,,
"USW00026563","2011-05-12",57.38,22.64,0.00,,
"USW00026563","2011-05-13",60.62,22.10,0.00,,
"USW00026563","2011-05-14",54.86,29.84,0.00,,
"USW00026563","2011-05-15",50.18,38.30,0.00,,
"USW00026563","2011-05-16",53.42,38.30,0.00,,
"USW00026563","2011-05-17",54.50,36.50,0.00,,
"USW00026563","2011-05-18",57.92,27.32,0.00,,
"USW00026563","2011-05-19",54.14,38.66,0.00,,
"USW00026563","2011-05-20",55.94,34.16,0.00,,
"USW00026563","2011-05-21",60.26,29.66,0.00,,
"USW00026563","2011-05-22",60.44,32.72,0.00,,
"USW00026563","2011-05-23",61.34,33.26,0.00,,
"USW00026563","2011-05-24",64.94,27.14,0.00,,
"USW00026563","2011-05-25",64.22,28.58,0.00,,
"USW00026563","2011-05-26",70.34,35.06,0.00,,
"USW00026563","2011-05-27",73.40,36.50,0.00,,
"USW00026563","2011-05-28",57.20,37.04,0.00,,
"USW00026563","2011-05-29",64.04,41.36,0.00,,
"USW00026563","2011-05-30",71.78,33.26,0.00,,
"USW00026563","2011-05-31",59.36,33.98,7.00,,
"USW00026563","2011-06-01",56.48,45.68,41.00,,
"USW00026563","2011-06-02",60.80,40.10,0.00,,
"USW00026563","2011-06-03",56.66,32.54,0.00,,
"USW00026563","2011-06-04",55.94,41.54,11.00,,
"USW00026563","2011-06-05",51.44,34.70,44.00,,
"USW00026563","2011-06-06",60.80,32.00,0.00,,
"USW00026563","2011-06-07",57.02,40.28,24.00,,
"USW00026563","2011-06-08",58.82,34.34,5.00,,
"USW00026563","2011-06-09",57.20,39.20,0.00,,
"USW00026563","2011-06-10",56.84,42.44,0.00,,
"USW00026563","2011-06-11",59.00,34.16,0.00,,
"USW00026563","2011-06-12",59.36,33.98,0.00,,
"USW00026563","2011-06-13",56.48,42.44,14.00,,
"USW00026563","2011-06-14",52.34,41.90,139.00,,
"USW00026563","2011-06-15",51.44,41.54,95.00,,
"USW00026563","2011-06-16",57.20,37.76,6.00,,
"USW00026563","2011-06-17",66.74,29.84,0.00,,
"USW00026563","2011-06-18",66.56,32.54,10.00,,
"USW00026563","2011-06-19",56.30,46.04,51.00,,
"USW00026563","2011-06-21",58.82,44.42,0.00,,
"USW00026563","2011-06-22",62.60,36.50,0.00,,
"USW00026563","2011-06-23",65.12,40.10,0.00,,
"USW00026563","2011-06-24",70.34,37.22,3.00,,
"USW00026563","2011-06-25",57.92,47.84,51.00,,
"USW00026563","2011-06-26",64.22,45.86,3.00,,
"USW00026563","2011-06-27",63.32,49.64,0.00,,
"USW00026563","2011-06-28",59.54,44.96,6.00,,
"USW00026563","2011-06-29",67.64,32.90,0.00,,
"USW00026563","2011-06-30",66.38,39.20,0.00,,
"USW00026563","2011-07-01",62.78,46.76,10.00,,
"USW00026563","2011-07-02",57.74,47.84,68.00,,
"USW00026563","2011-07-03",62.96,40.64,0.00,,
"USW00026563","2011-07-04",62.42,41.72,0.00,,
"USW00026563","2011-07-05",68.36,36.68,26.00,,
"USW00026563","2011-07-06",66.20,37.04,0.00,,
"USW00026563","2011-07-07",63.32,40.10,0.00,,
"USW00026563","2011-07-08",61.16,42.44,0.00,,
"USW00026563","2011-07-09",62.24,40.64,0.00,,
"USW00026563","2011-07-10",62.24,45.50,0.00,,
"USW00026563","2011-07-11",61.52,47.84,0.00,,
"USW00026563","2011-07-12",60.98,44.24,31.00,,
"USW00026563","2011-07-13",64.22,41.72,0.00,,
"USW00026563","2011-07-14",70.34,45.86,0.00,,
"USW00026563","2011-07-15",72.86,38.12,0.00,,
"USW00026563","2011-07-16",71.42,39.74,0.00,,
"USW00026563","2011-07-17",61.70,43.52,37.00,,
"USW00026563","2011-07-18",66.38,43.16,0.00,,
"USW00026563","2011-07-19",64.58,42.26,0.00,,
"USW00026563","2011-07-20",71.96,33.62,0.00,,
"USW00026563","2011-07-21",68.90,48.20,0.00,,
"USW00026563","2011-07-22",74.84,46.76,0.00,,
"USW00026563","2011-07-23",69.44,45.32,9.00,,
"USW00026563","2011-07-24",55.58,48.02,46.00,,
"USW00026563","2011-07-25",55.76,46.58,67.00,,
"USW00026563","2011-07-26",63.86,44.24,30.00,,
"USW00026563","2011-07-27",65.48,44.24,5.00,,
"USW00026563","2011-07-28",68.36,37.40,52.00,,
"USW00026563","2011-07-29",70.16,39.02,0.00,,
"USW00026563","2011-07-30",71.24,40.10,0.00,,
"USW00026563","2011-07-31",65.66,45.50,85.00,,
"USW00026563","2011-08-01",62.60,50.54,10.00,,
"USW00026563","2011-08-02",60.80,52.34,149.00,,
"USW00026563","2011-08-03",61.88,51.62,89.00,,
"USW00026563","2011-08-04",62.24,43.16,25.00,,
"USW00026563","2011-08-05",60.44,39.38,27.00,,
"USW00026563","2011-08-06",57.74,33.44,60.00,,
"USW00026563","2011-08-07",58.10,41.18,20.00,,
"USW00026563","2011-08-08",59.00,36.32,18.00,,
"USW00026563","2011-08-09",56.66,46.04,72.00,,
"USW00026563","2011-08-10",62.24,37.04,0.00,,
"USW00026563","2011-08-11",68.00,30.56,0.00,,
"USW00026563","2011-08-12",67.10,34.70,2.00,,
"USW00026563","2011-08-13",62.60,50.54,0.00,,
"USW00026563","2011-08-14",62.60,49.82,14.00,,
"USW00026563","2011-08-15",66.38,47.48,51.00,,
"USW00026563","2011-08-16",70.16,35.24,0.00,,
"USW00026563","2011-08-17",64.04,43.34,0.00,,
"USW00026563","2011-08-18",61.70,47.30,15.00,,
"USW00026563","2011-08-19",54.86,50.00,137.00,,
"USW00026563","2011-08-20",59.54,47.30,34.00,,
"USW00026563","2011-08-21",62.96,46.22,154.00,,
"USW00026563","2011-08-22",60.08,48.38,210.00,,
"USW00026563","2011-08-23",51.80,46.40,64.00,,
"USW00026563","2011-08-24",58.64,42.26,0.00,,
"USW00026563","2011-08-25",57.92,47.30,4.00,,
"USW00026563","2011-08-26",64.40,43.70,3.00,,
"USW00026563","2011-08-27",62.24,41.18,6.00,,
"USW00026563","2011-08-28",64.40,34.34,0.00,,
"USW00026563","2011-08-29",67.64,32.00,11.00,,
"USW00026563","2011-08-30",57.02,43.70,4.00,,
"USW00026563","2011-08-31",53.60,47.48,224.00,,
"USW00026563","2011-09-01",60.08,41.18,0.00,,
"USW00026563","2011-09-02",57.02,41.18,4.00,,
"USW00026563","2011-09-03",57.38,34.88,0.00,,
"USW00026563","2011-09-04",57.38,44.24,11.00,,
"USW00026563","2011-09-05",56.84,48.56,0.00,,
"USW00026563","2011-09-06",57.56,45.86,0.00,,
"USW00026563","2011-09-07",56.66,44.06,3.00,,
"USW00026563","2011-09-08",60.62,38.12,0.00,,
"USW00026563","2011-09-09",62.42,34.88,28.00,,
"USW00026563","2011-09-10",59.00,34.34,0.00,,
"USW00026563","2011-09-11",57.56,33.44,0.00,,
"USW00026563","2011-09-12",52.70,44.78,32.00,,
"USW00026563","2011-09-13",63.86,46.22,0.00,,
"USW00026563","2011-09-14",58.82,40.82,0.00,,
"USW00026563","2011-09-15",54.86,41.54,0.00,,
"USW00026563","2011-09-16",51.98,41.72,0.00,,
"USW00026563","2011-09-17",54.50,34.70,51.00,,
"USW00026563","2011-09-18",54.50,30.02,0.00,,
"USW00026563","2011-09-19",52.16,35.78,0.00,,
"USW00026563","2011-09-20",54.86,42.98,9.00,,
"USW00026563","2011-09-21",56.30,35.60,8.00,,
"USW00026563","2011-09-22",54.86,37.22,12.00,,
"USW00026563","2011-09-23",53.42,29.48,0.00,,
"USW00026563","2011-09-24",56.48,34.34,0.00,,
"USW00026563","2011-09-25",53.06,27.86,0.00,,
"USW00026563","2011-09-26",52.70,26.24,0.00,,
"USW00026563","2011-09-27",51.26,26.78,0.00,,
"USW00026563","2011-09-28",53.42,22.82,13.00,,
"USW00026563","2011-09-29",46.40,29.66,0.00,,
"USW00026563","2011-09-30",50.90,27.86,0.00,,
"USW00026563","2011-10-01",47.48,38.84,24.00,,
"USW00026563","2011-10-02",42.80,33.98,211.00,,
"USW00026563","2011-10-03",50.90,28.22,0.00,,
"USW00026563","2011-10-04",50.18,24.44,0.00,,
"USW00026563","2011-10-05",49.10,22.10,6.00,,
"USW00026563","2011-10-06",48.74,36.86,8.00,,
"USW00026563","2011-10-07",47.12,35.96,0.00,,
"USW00026563","2011-10-08",47.30,29.48,0.00,,
"USW00026563","2011-10-09",46.40,24.62,0.00,,
"USW00026563","2011-10-10",47.30,18.68,0.00,,
"USW00026563","2011-10-11",44.60,14.18,0.00,,
"USW00026563","2011-10-12",43.70,12.74,0.00,,
"USW00026563","2011-10-13",45.50,24.26,0.00,,
"USW00026563","2011-10-14",53.24,38.66,0.00,,
"USW00026563","2011-10-15",45.50,38.84,21.00,,
"USW00026563","2011-10-16",41.00,34.70,27.00,,
"USW00026563","2011-10-17",38.48,33.62,41.00,,
"USW00026563","2011-10-18",40.64,21.20,0.00,,
"USW00026563","2011-10-19",36.50,15.08,0.00,,
"USW00026563","2011-10-20",43.52,27.32,0.00,,
"USW00026563","2011-10-21",42.62,36.14,4.00,,
"USW00026563","2011-10-22",39.56,31.46,4.00,,
"USW00026563","2011-10-23",45.50,31.28,0.00,,
"USW00026563","2011-10-24",48.38,32.72,25.00,,
"USW00026563","2011-10-25",47.30,35.78,15.00,,
"USW00026563","2011-10-26",40.28,21.02,5.00,,
"USW00026563","2011-10-27",37.58,17.96,0.00,,
"USW00026563","2011-10-28",35.96,19.04,0.00,,
"USW00026563","2011-10-29",33.98,25.88,0.00,,
"USW00026563","2011-10-30",32.54,10.94,110.00,,
"USW00026563","2011-10-31",24.98,10.94,31.00,,
"USW00026563","2011-11-01",31.28,20.12,0.00,,
"USW00026563","2011-11-02",32.00,0.32,0.00,,
"USW00026563","2011-11-03",34.16,-0.40,12.00,,
"USW00026563","2011-11-04",32.72,27.50,6.00,,
"USW00026563","2011-11-05",28.76,15.98,4.00,,
"USW00026563","2011-11-06",33.26,20.66,69.00,,
"USW00026563","2011-11-07",28.58,5.36,24.00,,
"USW00026563","2011-11-08",16.52,-13.00,0.00,,
"USW00026563","2011-11-09",18.86,-4.18,26.00,,
"USW00026563","2011-11-10",24.08,-1.48,19.00,,
"USW00026563","2011-11-11",23.54,-4.00,26.00,,
"USW00026563","2011-11-12",29.12,15.98,9.00,,
"USW00026563","2011-11-13",29.12,6.08,0.00,,
"USW00026563","2011-11-14",17.78,-5.08,0.00,,
"USW00026563","2011-11-15",10.94,-8.32,0.00,,
"USW00026563","2011-11-16",12.92,9.14,0.00,,
"USW00026563","2011-11-17",17.06,-11.20,0.00,,
"USW00026563","2011-11-18",7.70,-19.12,0.00,,
"USW00026563","2011-11-19",2.66,-23.62,3.00,,
"USW00026563","2011-11-20",10.40,2.48,10.00,,
"USW00026563","2011-11-21",5.72,-19.66,6.00,,
"USW00026563","2011-11-22",4.82,-7.06,54.00,,
"USW00026563","2011-11-23",6.80,-12.82,0.00,,
"USW00026563","2011-11-24",11.66,-6.88,37.00,,
"USW00026563","2011-11-25",9.14,-13.18,0.00,,
"USW00026563","2011-11-26",10.04,-20.02,6.00,,
"USW00026563","2011-11-27",17.24,-18.58,3.00,,
"USW00026563","2011-11-28",17.42,6.26,0.00,,
"USW00026563","2011-11-29",24.26,-8.86,0.00,,
"USW00026563","2011-11-30",24.44,6.80,0.00,,
"USW00026563","2011-12-01",34.16,17.24,6.00,,
"USW00026563","2011-12-02",35.24,19.58,25.00,,
"USW00026563","2011-12-03",44.24,23.90,45.00,,
"USW00026563","2011-12-04",46.04,31.28,46.00,,
"USW00026563","2011-12-05",31.46,24.08,0.00,,
"USW00026563","2011-12-06",30.20,15.80,0.00,,
"USW00026563","2011-12-07",38.48,17.78,0.00,,
"USW00026563","2011-12-08",33.08,26.96,16.00,,
"USW00026563","2011-12-09",31.10,7.88,4.00,,
"USW00026563","2011-12-10",37.22,3.02,0.00,,
"USW00026563","2011-12-11",39.02,32.18,124.00,,
"USW00026563","2011-12-12",33.62,17.60,40.00,,
"USW00026563","2011-12-13",21.20,3.20,0.00,,
"USW00026563","2011-12-14",19.76,11.84,2.00,,
"USW00026563","2011-12-15",34.70,17.42,0.00,,
"USW00026563","2011-12-16",38.30,25.70,0.00,,
"USW00026563","2011-12-17",40.64,24.62,0.00,,
"USW00026563","2011-12-18",41.72,33.80,97.00,,
"USW00026563","2011-12-19",34.16,25.88,9.00,,
"USW00026563","2011-12-20",39.20,22.82,38.00,,
"USW00026563","2011-12-21",35.24,10.94,0.00,,
"USW00026563","2011-12-22",22.82,10.04,9.00,,
"USW00026563","2011-12-23",21.20,-5.26,5.00,,
"USW00026563","2011-12-24",11.48,-5.62,3.00,,
"USW00026563","2011-12-25",15.62,-11.20,12.00,,
"USW00026563","2011-12-26",12.92,-10.48,0.00,,
"USW00026563","2011-12-27",14.36,2.66,9.00,,
"USW00026563","2011-12-28",8.78,1.58,0.00,,
"USW00026563","2011-12-29",6.44,-9.22,4.00,,
"USW00026563","2011-12-30",5.72,-3.64,13.00,,
"USW00026563","2011-12-31",3.20,-13.90,4.00,,
"USW00026563","2012-01-01",-9.58,-28.84,0.00,,
"USW00026563","2012-01-02",2.48,-29.92,7.00,,
"USW00026563","2012-01-03",-2.20,-18.58,0.00,,
"USW00026563","2012-01-04",-7.78,-19.84,0.00,,
"USW00026563","2012-01-05",10.04,-20.02,40.00,,
"USW00026563","2012-01-06",10.04,-16.24,0.00,,
"USW00026563","2012-01-07",10.94,2.84,72.00,,
"USW00026563","2012-01-08",17.24,-13.36,29.00,,
"USW00026563","2012-01-09",7.88,-26.68,0.00,,
"USW00026563","2012-01-10",38.66,7.52,19.00,,
"USW00026563","2012-01-11",39.20,25.70,4.00,,
"USW00026563","2012-01-12",25.70,9.68,73.00,,
"USW00026563","2012-01-13",10.22,-23.98,9.00,,
"USW00026563","2012-01-14",-12.64,-32.98,17.00,,
"USW00026563","2012-01-15",-0.04,-27.94,0.00,,
"USW00026563","2012-01-16",-7.42,-28.84,0.00,,
"USW00026563","2012-01-17",-9.58,-32.26,0.00,,
"USW00026563","2012-01-18",-9.40,-33.16,35.00,,
"USW00026563","2012-01-19",-2.38,-31.90,0.00,,
"USW00026563","2012-01-20",-3.82,-30.28,0.00,,
"USW00026563","2012-01-21",7.70,-27.22,0.00,,